KLM742 EHAM-LDSP

Flight info

Callsign KLM742
Flight time 1h 47m
Altitude 37000
Route EDUPO Z739 MISGO DCT ASBON DCT TUSUK DCT UTABA DCT BEMKI DCT ELMEM DCT DIRAB DCT VESAL DCT PEVAL DCT PUL DCT LOS DCT MINTU DCT SAL
Aircraft A21N/M-SDE2E3FGHIRWXY/LB1

Departure

Time 2026-04-30 07:39
Airport Amsterdam Airport Schiphol (EHAM)

Arrival

Time 2026-04-30 09:26
Airport Split Saint Jerome Airport (LDSP)
Time Latitude Longitude Altitude Speed Heading
2026-04-30 07:29 52.31200 4.77373 1 ft 0 kts 184°
2026-04-30 07:29 52.31200 4.77374 1 ft 0 kts 184°
2026-04-30 07:30 52.31200 4.77373 1 ft 0 kts 184°
2026-04-30 07:33 52.31200 4.77374 1 ft 0 kts 184°
2026-04-30 07:33 52.31200 4.77373 1 ft 0 kts 184°
2026-04-30 07:33 52.31214 4.77375 1 ft 3 kts 184°
2026-04-30 07:34 52.31231 4.77377 1 ft 2 kts 163°
2026-04-30 07:34 52.31247 4.77378 1 ft 2 kts 212°
2026-04-30 07:34 52.31261 4.77393 1 ft 2 kts 237°
2026-04-30 07:34 52.31265 4.77411 1 ft 0 kts 275°
2026-04-30 07:35 52.31266 4.77401 1 ft 2 kts 275°
2026-04-30 07:35 52.31267 4.77377 1 ft 3 kts 275°
2026-04-30 07:35 52.31278 4.77315 1 ft 10 kts 293°
2026-04-30 07:35 52.31332 4.77199 1 ft 16 kts 336°
2026-04-30 07:36 52.31460 4.77193 1 ft 21 kts
2026-04-30 07:36 52.31564 4.77123 0 ft 11 kts 287°
2026-04-30 07:36 52.31563 4.76961 0 ft 18 kts 267°
2026-04-30 07:36 52.31555 4.76719 0 ft 24 kts 266°
2026-04-30 07:37 52.31542 4.76410 1 ft 30 kts 268°
2026-04-30 07:37 52.31534 4.76071 1 ft 28 kts 266°
2026-04-30 07:37 52.31522 4.75729 0 ft 33 kts 266°
2026-04-30 07:37 52.31508 4.75360 0 ft 29 kts 267°
2026-04-30 07:38 52.31496 4.75018 0 ft 28 kts 266°
2026-04-30 07:38 52.31500 4.74719 1 ft 25 kts 302°
2026-04-30 07:38 52.31596 4.74662 3 ft 13 kts
2026-04-30 07:38 52.31662 4.74759 3 ft 15 kts 75°
2026-04-30 07:39 52.31682 4.75188 -1 ft 74 kts 87°
2026-04-30 07:39 52.31727 4.76471 1 ft 151 kts 87°
2026-04-30 07:39 52.31781 4.78415 259 ft 189 kts 89°
2026-04-30 07:39 52.31852 4.80732 854 ft 213 kts 88°
2026-04-30 07:40 52.31941 4.83118 2033 ft 209 kts 90°
2026-04-30 07:40 52.32013 4.85530 3037 ft 215 kts 94°
2026-04-30 07:40 52.31732 4.87959 3969 ft 222 kts 109°
2026-04-30 07:40 52.31157 4.90350 4866 ft 230 kts 112°
2026-04-30 07:41 52.30503 4.92792 5699 ft 239 kts 113°
2026-04-30 07:41 52.29829 4.95313 6217 ft 244 kts 111°
2026-04-30 07:41 52.29277 4.97899 6408 ft 244 kts 107°
2026-04-30 07:41 52.28795 5.00574 6493 ft 247 kts 105°
2026-04-30 07:42 52.28323 5.03297 7096 ft 251 kts 105°
2026-04-30 07:42 52.27848 5.06042 8110 ft 251 kts 105°
2026-04-30 07:42 52.27368 5.08799 9083 ft 253 kts 105°
2026-04-30 07:42 52.26883 5.11586 10022 ft 256 kts 105°
2026-04-30 07:43 52.26389 5.14420 10799 ft 265 kts 105°
2026-04-30 07:43 52.25863 5.17434 11178 ft 287 kts 105°
2026-04-30 07:43 52.25303 5.20634 11519 ft 308 kts 105°
2026-04-30 07:43 52.24647 5.24143 11901 ft 328 kts 109°
2026-04-30 07:44 52.23619 5.27479 12504 ft 340 kts 120°
2026-04-30 07:44 52.22282 5.30718 13236 ft 347 kts 123°
2026-04-30 07:44 52.20872 5.33951 13983 ft 353 kts 123°
2026-04-30 07:44 52.19430 5.37237 14660 ft 359 kts 123°
2026-04-30 07:45 52.17969 5.40570 15327 ft 363 kts 123°
2026-04-30 07:45 52.16495 5.43939 16004 ft 368 kts 123°
2026-04-30 07:45 52.14996 5.47368 16658 ft 373 kts 123°
2026-04-30 07:45 52.13481 5.50834 17309 ft 378 kts 123°
2026-04-30 07:46 52.11946 5.54341 17978 ft 382 kts 123°
2026-04-30 07:46 52.10395 5.57881 18627 ft 386 kts 123°
2026-04-30 07:46 52.08828 5.61453 19190 ft 390 kts 123°
2026-04-30 07:46 52.07243 5.65063 19735 ft 394 kts 123°
2026-04-30 07:47 52.05558 5.68622 20264 ft 399 kts 127°
2026-04-30 07:47 52.03750 5.72071 20800 ft 403 kts 128°
2026-04-30 07:47 52.01927 5.75473 21302 ft 407 kts 129°
2026-04-30 07:47 52.00053 5.78955 21812 ft 410 kts 129°
2026-04-30 07:48 51.98166 5.82460 22329 ft 414 kts 129°
2026-04-30 07:48 51.96265 5.85998 22845 ft 417 kts 128°
2026-04-30 07:48 51.94349 5.89571 23323 ft 422 kts 128°
2026-04-30 07:48 51.92417 5.93176 23811 ft 426 kts 128°
2026-04-30 07:49 51.90468 5.96809 24258 ft 429 kts 128°
2026-04-30 07:49 51.88502 6.00469 24715 ft 431 kts 128°
2026-04-30 07:49 51.86526 6.04140 25149 ft 433 kts 128°
2026-04-30 07:49 51.84539 6.07818 25590 ft 435 kts 128°
2026-04-30 07:50 51.82535 6.11505 26007 ft 437 kts 128°
2026-04-30 07:50 51.80540 6.15165 26409 ft 439 kts 128°
2026-04-30 07:50 51.78511 6.18881 26807 ft 441 kts 128°
2026-04-30 07:50 51.76475 6.22604 27199 ft 443 kts 128°
2026-04-30 07:51 51.74430 6.26336 27573 ft 445 kts 128°
2026-04-30 07:51 51.72370 6.30091 27934 ft 447 kts 128°
2026-04-30 07:51 51.70304 6.33851 28285 ft 449 kts 128°
2026-04-30 07:51 51.68233 6.37614 28751 ft 447 kts 128°
2026-04-30 07:52 51.66174 6.41348 29309 ft 445 kts 128°
2026-04-30 07:52 51.64124 6.45061 29815 ft 442 kts 128°
2026-04-30 07:52 51.62084 6.48752 30314 ft 440 kts 128°
2026-04-30 07:52 51.60047 6.52435 30755 ft 438 kts 128°
2026-04-30 07:53 51.58024 6.56088 31126 ft 437 kts 128°
2026-04-30 07:53 51.56005 6.59730 31505 ft 436 kts 128°
2026-04-30 07:53 51.54014 6.63316 31842 ft 434 kts 128°
2026-04-30 07:53 51.52001 6.66937 32192 ft 433 kts 128°
2026-04-30 07:54 51.49996 6.70537 32544 ft 432 kts 128°
2026-04-30 07:54 51.47992 6.74130 32886 ft 431 kts 128°
2026-04-30 07:54 51.45990 6.77717 33081 ft 433 kts 128°
2026-04-30 07:54 51.43982 6.81309 33361 ft 432 kts 128°
2026-04-30 07:55 51.41952 6.84851 33690 ft 432 kts 131°
2026-04-30 07:55 51.39689 6.88050 33988 ft 435 kts 139°
2026-04-30 07:55 51.37245 6.90826 34288 ft 436 kts 141°
2026-04-30 07:55 51.34685 6.93528 34604 ft 434 kts 143°
2026-04-30 07:56 51.32169 6.96079 34838 ft 434 kts 143°
2026-04-30 07:56 51.29610 6.98626 35005 ft 434 kts 143°
2026-04-30 07:56 51.27037 7.01174 35177 ft 435 kts 143°
2026-04-30 07:56 51.24467 7.03718 35349 ft 435 kts 143°
2026-04-30 07:57 51.21892 7.06275 35530 ft 435 kts 143°
2026-04-30 07:57 51.19317 7.08839 35688 ft 435 kts 143°
2026-04-30 07:57 51.16751 7.11397 35860 ft 435 kts 143°
2026-04-30 07:57 51.14185 7.13955 36032 ft 435 kts 143°
2026-04-30 07:58 51.11604 7.16529 36078 ft 438 kts 143°
2026-04-30 07:58 51.09016 7.19106 36243 ft 438 kts 143°
2026-04-30 07:58 51.06465 7.21642 36423 ft 437 kts 143°
2026-04-30 07:58 51.03884 7.24203 36572 ft 437 kts 143°
2026-04-30 07:59 51.01303 7.26761 36710 ft 437 kts 143°
2026-04-30 07:59 50.98723 7.29314 36841 ft 437 kts 143°
2026-04-30 07:59 50.96136 7.31871 36970 ft 437 kts 143°
2026-04-30 08:00 50.90967 7.36970 37197 ft 438 kts 143°
2026-04-30 08:00 50.88379 7.39518 37304 ft 438 kts 143°
2026-04-30 08:00 50.83194 7.44614 37428 ft 441 kts 143°
2026-04-30 08:01 50.77972 7.49732 37423 ft 441 kts 143°
2026-04-30 08:01 50.72778 7.54811 37421 ft 443 kts 143°
2026-04-30 08:02 50.65028 7.62753 37417 ft 443 kts 142°
2026-04-30 08:03 50.55591 7.72561 37422 ft 443 kts 142°
2026-04-30 08:04 50.50431 7.77875 37420 ft 444 kts 142°
2026-04-30 08:04 50.45258 7.83183 37427 ft 444 kts 142°
2026-04-30 08:05 50.40075 7.88486 37431 ft 445 kts 142°
2026-04-30 08:05 50.34875 7.93793 37419 ft 447 kts 142°
2026-04-30 08:06 50.29649 7.99113 37420 ft 447 kts 142°
2026-04-30 08:06 50.24424 8.04417 37417 ft 448 kts 142°
2026-04-30 08:07 50.19222 8.09687 37411 ft 448 kts 142°
2026-04-30 08:07 50.13948 8.14893 37404 ft 451 kts 147°
2026-04-30 08:08 50.08323 8.19248 37402 ft 451 kts 150°
2026-04-30 08:08 50.02617 8.23383 37430 ft 452 kts 150°
2026-04-30 08:09 49.96893 8.27472 37404 ft 453 kts 150°
2026-04-30 08:09 49.91157 8.31575 37405 ft 454 kts 150°
2026-04-30 08:10 49.85459 8.35655 37407 ft 452 kts 150°
2026-04-30 08:10 49.79750 8.39737 37398 ft 452 kts 150°
2026-04-30 08:11 49.74046 8.43805 37397 ft 452 kts 150°
2026-04-30 08:11 49.68332 8.47870 37401 ft 451 kts 150°
2026-04-30 08:12 49.62618 8.51925 37398 ft 451 kts 150°
2026-04-30 08:12 49.56948 8.55935 37399 ft 450 kts 150°
2026-04-30 08:13 49.51258 8.59952 37397 ft 450 kts 150°
2026-04-30 08:13 49.45558 8.63965 37404 ft 450 kts 150°
2026-04-30 08:14 49.39858 8.67967 37396 ft 450 kts 151°
2026-04-30 08:14 49.34160 8.71957 37385 ft 449 kts 151°
2026-04-30 08:15 49.28462 8.75937 37378 ft 449 kts 151°
2026-04-30 08:15 49.22814 8.79873 37356 ft 449 kts 151°
2026-04-30 08:16 49.17126 8.83826 37346 ft 449 kts 151°
2026-04-30 08:16 49.11433 8.87774 37334 ft 450 kts 151°
2026-04-30 08:17 49.05708 8.91734 37335 ft 452 kts 151°
2026-04-30 08:17 48.99975 8.95687 37324 ft 452 kts 151°
2026-04-30 08:18 48.94228 8.99640 37326 ft 452 kts 151°
2026-04-30 08:18 48.88520 9.03558 37325 ft 453 kts 152°
2026-04-30 08:19 48.82777 9.07489 37327 ft 453 kts 152°
2026-04-30 08:19 48.77032 9.11411 37325 ft 452 kts 152°
2026-04-30 08:20 48.71287 9.15324 37334 ft 452 kts 152°
2026-04-30 08:20 48.65531 9.19237 37322 ft 454 kts 152°
2026-04-30 08:21 48.59756 9.23151 37320 ft 455 kts 152°
2026-04-30 08:21 48.54014 9.27031 37316 ft 455 kts 152°
2026-04-30 08:22 48.48231 9.30929 37299 ft 455 kts 152°
2026-04-30 08:22 48.42443 9.34822 37304 ft 455 kts 152°
2026-04-30 08:23 48.36658 9.38703 37304 ft 455 kts 152°
2026-04-30 08:23 48.30877 9.42572 37305 ft 454 kts 152°
2026-04-30 08:24 48.25264 9.46836 37323 ft 448 kts 141°
2026-04-30 08:24 48.20329 9.52432 37312 ft 448 kts 137°
2026-04-30 08:25 48.15502 9.58364 37310 ft 449 kts 136°
2026-04-30 08:25 48.10685 9.64349 37310 ft 449 kts 136°
2026-04-30 08:26 48.05869 9.70282 37307 ft 449 kts 136°
2026-04-30 08:26 48.01025 9.76204 37303 ft 449 kts 137°
2026-04-30 08:27 47.96175 9.82110 37302 ft 451 kts 137°
2026-04-30 08:27 47.91298 9.88035 37297 ft 452 kts 137°
2026-04-30 08:28 47.86440 9.93922 37294 ft 453 kts 137°
2026-04-30 08:28 47.81546 9.99838 37295 ft 452 kts 137°
2026-04-30 08:29 47.76651 10.05740 37266 ft 453 kts 137°
2026-04-30 08:29 47.71747 10.11641 37269 ft 454 kts 137°
2026-04-30 08:30 47.66821 10.17551 37255 ft 456 kts 137°
2026-04-30 08:30 47.61913 10.23423 37255 ft 456 kts 137°
2026-04-30 08:31 47.56963 10.29317 37237 ft 457 kts 140°
2026-04-30 08:31 47.51711 10.34691 37240 ft 459 kts 143°
2026-04-30 08:32 47.46373 10.39902 37235 ft 460 kts 144°
2026-04-30 08:32 47.41001 10.45082 37268 ft 460 kts 144°
2026-04-30 08:33 47.35629 10.50260 37246 ft 461 kts 144°
2026-04-30 08:33 47.30275 10.55420 37238 ft 462 kts 144°
2026-04-30 08:34 47.24961 10.60745 37236 ft 462 kts 142°
2026-04-30 08:34 47.19736 10.66262 37259 ft 461 kts 142°
2026-04-30 08:35 47.14552 10.71753 37261 ft 461 kts 142°
2026-04-30 08:35 47.09328 10.77237 37291 ft 462 kts 142°
2026-04-30 08:36 47.04081 10.82711 37284 ft 464 kts 143°
2026-04-30 08:36 46.98802 10.88200 37284 ft 465 kts 143°
2026-04-30 08:37 46.93549 10.93648 37277 ft 464 kts 143°
2026-04-30 08:37 46.88268 10.99113 37281 ft 464 kts 143°
2026-04-30 08:38 46.83027 11.04552 37262 ft 464 kts 140°
2026-04-30 08:38 46.78327 11.10963 37263 ft 463 kts 132°
2026-04-30 08:39 46.73871 11.17807 37252 ft 464 kts 131°
2026-04-30 08:39 46.69476 11.24696 37252 ft 464 kts 131°
2026-04-30 08:40 46.65075 11.31562 37261 ft 464 kts 131°
2026-04-30 08:40 46.60685 11.38362 37250 ft 464 kts 131°
2026-04-30 08:41 46.56233 11.45227 37265 ft 467 kts 131°
2026-04-30 08:41 46.51763 11.52100 37266 ft 468 kts 131°
2026-04-30 08:42 46.47283 11.58973 37268 ft 467 kts 131°
2026-04-30 08:42 46.42805 11.65823 37276 ft 467 kts 132°
2026-04-30 08:43 46.38349 11.72603 37283 ft 467 kts 133°
2026-04-30 08:43 46.33784 11.79311 37294 ft 469 kts 133°
2026-04-30 08:44 46.29143 11.86030 37289 ft 473 kts 133°
2026-04-30 08:44 46.24487 11.92760 37295 ft 473 kts 133°
2026-04-30 08:45 46.19832 11.99492 37304 ft 473 kts 133°
2026-04-30 08:45 46.15183 12.06209 37311 ft 473 kts 133°
2026-04-30 08:46 46.10520 12.12928 37306 ft 474 kts 133°
2026-04-30 08:46 46.05880 12.19596 37311 ft 474 kts 134°
2026-04-30 08:47 46.01206 12.26296 37307 ft 474 kts 133°
2026-04-30 08:47 45.96521 12.32993 37313 ft 474 kts 134°
2026-04-30 08:48 45.91835 12.39676 37310 ft 474 kts 134°
2026-04-30 08:48 45.87136 12.46360 37312 ft 475 kts 134°
2026-04-30 08:49 45.82419 12.53054 37312 ft 478 kts 134°
2026-04-30 08:49 45.77714 12.59713 37313 ft 478 kts 134°
2026-04-30 08:50 45.72982 12.66393 37321 ft 478 kts 134°
2026-04-30 08:50 45.68240 12.73071 37317 ft 479 kts 134°
2026-04-30 08:51 45.63491 12.79742 37308 ft 479 kts 134°
2026-04-30 08:51 45.59535 12.85287 37315 ft 479 kts 134°
2026-04-30 08:52 45.53987 12.93042 37312 ft 479 kts 134°
2026-04-30 08:52 45.50021 12.98573 37313 ft 480 kts 134°
2026-04-30 08:53 45.45231 13.05237 37311 ft 481 kts 134°
2026-04-30 08:53 45.40437 13.11891 37290 ft 481 kts 135°
2026-04-30 08:54 45.35630 13.18544 37306 ft 482 kts 135°
2026-04-30 08:54 45.30824 13.25228 37332 ft 482 kts 133°
2026-04-30 08:55 45.26323 13.32255 37304 ft 480 kts 130°
2026-04-30 08:55 45.21972 13.39419 37301 ft 479 kts 130°
2026-04-30 08:56 45.17625 13.46527 37298 ft 479 kts 130°
2026-04-30 08:56 45.13225 13.53626 37292 ft 480 kts 131°
2026-04-30 08:57 45.08793 13.60720 37290 ft 481 kts 131°
2026-04-30 08:57 45.04356 13.67799 37284 ft 481 kts 131°
2026-04-30 08:58 44.99914 13.74871 37270 ft 481 kts 131°
2026-04-30 08:58 44.95467 13.81937 37266 ft 481 kts 131°
2026-04-30 08:59 44.91010 13.89003 37264 ft 482 kts 132°
2026-04-30 08:59 44.86507 13.96042 37266 ft 485 kts 133°
2026-04-30 09:00 44.81962 14.02983 37263 ft 485 kts 133°
2026-04-30 09:00 44.77375 14.09956 37268 ft 485 kts 133°
2026-04-30 09:01 44.72785 14.16930 37270 ft 485 kts 133°
2026-04-30 09:01 44.68186 14.23911 37244 ft 486 kts 134°
2026-04-30 09:02 44.61267 14.34382 37252 ft 488 kts 134°
2026-04-30 09:02 44.56645 14.41358 37251 ft 488 kts 134°
2026-04-30 09:03 44.51894 14.48133 37250 ft 487 kts 139°
2026-04-30 09:03 44.46837 14.54348 36730 ft 484 kts 141°
2026-04-30 09:04 44.44271 14.57415 36047 ft 484 kts 142°
2026-04-30 09:04 44.41692 14.60471 35297 ft 486 kts 142°
2026-04-30 09:04 44.39105 14.63528 34603 ft 487 kts 142°
2026-04-30 09:04 44.36520 14.66581 33888 ft 487 kts 142°
2026-04-30 09:05 44.33958 14.69608 33384 ft 489 kts 142°
2026-04-30 09:05 44.31318 14.72731 33242 ft 493 kts 142°
2026-04-30 09:05 44.26097 14.78903 33238 ft 495 kts 142°
2026-04-30 09:06 44.20834 14.85115 33159 ft 495 kts 143°
2026-04-30 09:06 44.18212 14.88205 32530 ft 493 kts 143°
2026-04-30 09:06 44.15589 14.91291 31786 ft 494 kts 143°
2026-04-30 09:07 44.12959 14.94381 30998 ft 495 kts 143°
2026-04-30 09:07 44.10318 14.97481 30202 ft 496 kts 143°
2026-04-30 09:07 44.07699 15.00551 29276 ft 498 kts 143°
2026-04-30 09:07 44.05048 15.03655 28412 ft 497 kts 143°
2026-04-30 09:08 44.02406 15.06744 27576 ft 496 kts 142°
2026-04-30 09:08 43.99770 15.09825 26867 ft 492 kts 142°
2026-04-30 09:08 43.97166 15.12865 26183 ft 488 kts 142°
2026-04-30 09:08 43.94574 15.15886 25534 ft 484 kts 142°
2026-04-30 09:09 43.92026 15.18907 24963 ft 479 kts 141°
2026-04-30 09:09 43.89519 15.21914 24393 ft 473 kts 141°
2026-04-30 09:09 43.87043 15.24886 23834 ft 468 kts 141°
2026-04-30 09:09 43.84598 15.27818 23180 ft 463 kts 141°
2026-04-30 09:10 43.82164 15.30731 22220 ft 464 kts 141°
2026-04-30 09:10 43.79697 15.33678 21017 ft 471 kts 140°
2026-04-30 09:10 43.77201 15.36655 19905 ft 475 kts 140°
2026-04-30 09:10 43.74695 15.39642 19045 ft 473 kts 140°
2026-04-30 09:11 43.72221 15.42589 18259 ft 467 kts 140°
2026-04-30 09:11 43.69772 15.45500 17467 ft 460 kts 139°
2026-04-30 09:11 43.67365 15.48359 16710 ft 452 kts 139°
2026-04-30 09:11 43.64997 15.51168 15972 ft 445 kts 139°
2026-04-30 09:12 43.62699 15.53891 15258 ft 437 kts 138°
2026-04-30 09:12 43.60402 15.56610 14522 ft 431 kts 137°
2026-04-30 09:12 43.58135 15.59290 13776 ft 423 kts 137°
2026-04-30 09:12 43.55928 15.61895 12550 ft 412 kts 137°
2026-04-30 09:13 43.53772 15.64441 11149 ft 404 kts 137°
2026-04-30 09:13 43.51644 15.66951 9649 ft 400 kts 137°
2026-04-30 09:13 43.49571 15.69395 8210 ft 393 kts 137°
2026-04-30 09:13 43.47528 15.71800 6962 ft 380 kts 138°
2026-04-30 09:14 43.45540 15.74136 5656 ft 369 kts 136°
2026-04-30 09:14 43.43620 15.76389 4429 ft 356 kts 136°
2026-04-30 09:14 43.41666 15.78347 3610 ft 339 kts 151°
2026-04-30 09:14 43.39446 15.79037 3154 ft 320 kts 181°
2026-04-30 09:15 43.37425 15.78193 3031 ft 292 kts 214°
2026-04-30 09:15 43.35942 15.76449 3031 ft 276 kts 225°
2026-04-30 09:15 43.34607 15.74564 3027 ft 270 kts 225°
2026-04-30 09:15 43.33205 15.73047 3028 ft 251 kts 207°
2026-04-30 09:16 43.31585 15.72345 3054 ft 244 kts 182°
2026-04-30 09:16 43.29922 15.72580 3037 ft 239 kts 157°
2026-04-30 09:16 43.28496 15.73651 3034 ft 232 kts 136°
2026-04-30 09:16 43.27307 15.75129 3032 ft 230 kts 130°
2026-04-30 09:17 43.26173 15.76688 3030 ft 230 kts 129°
2026-04-30 09:17 43.25211 15.78402 3029 ft 225 kts 114°
2026-04-30 09:17 43.24719 15.80395 3026 ft 219 kts 93°
2026-04-30 09:17 43.24800 15.82447 3024 ft 214 kts 73°
2026-04-30 09:18 43.25417 15.84281 3028 ft 211 kts 53°
2026-04-30 09:18 43.26371 15.85802 3023 ft 210 kts 46°
2026-04-30 09:18 43.27389 15.87212 3025 ft 211 kts 44°
2026-04-30 09:18 43.28429 15.88633 3027 ft 211 kts 44°
2026-04-30 09:19 43.29463 15.90054 3025 ft 211 kts 45°
2026-04-30 09:19 43.30498 15.91490 3014 ft 211 kts 45°
2026-04-30 09:19 43.31536 15.92933 3023 ft 213 kts 45°
2026-04-30 09:19 43.32580 15.94386 3025 ft 213 kts 45°
2026-04-30 09:20 43.33617 15.95834 3024 ft 212 kts 45°
2026-04-30 09:20 43.34654 15.97281 3022 ft 214 kts 45°
2026-04-30 09:20 43.35699 15.98743 3027 ft 214 kts 45°
2026-04-30 09:20 43.36741 16.00199 3030 ft 213 kts 45°
2026-04-30 09:21 43.37766 16.01633 3024 ft 213 kts 46°
2026-04-30 09:21 43.38798 16.03079 3019 ft 211 kts 46°
2026-04-30 09:21 43.39782 16.04576 3021 ft 211 kts 51°
2026-04-30 09:21 43.40687 16.06168 3021 ft 211 kts 52°
2026-04-30 09:22 43.41574 16.07767 2940 ft 211 kts 52°
2026-04-30 09:22 43.42471 16.09378 2938 ft 212 kts 52°
2026-04-30 09:22 43.43369 16.10989 2738 ft 212 kts 52°
2026-04-30 09:22 43.44250 16.12554 2462 ft 199 kts 52°
2026-04-30 09:23 43.45064 16.13994 2337 ft 181 kts 51°
2026-04-30 09:23 43.45814 16.15322 2071 ft 169 kts 52°
2026-04-30 09:23 43.46491 16.16526 2023 ft 147 kts 51°
2026-04-30 09:23 43.47094 16.17601 2014 ft 142 kts 52°
2026-04-30 09:24 43.47696 16.18684 1868 ft 143 kts 52°
2026-04-30 09:24 43.48310 16.19788 1670 ft 148 kts 52°
2026-04-30 09:24 43.48935 16.20906 1456 ft 147 kts 53°
2026-04-30 09:24 43.49563 16.22030 1263 ft 148 kts 56°
2026-04-30 09:25 43.50185 16.23146 1063 ft 146 kts 55°
2026-04-30 09:25 43.50808 16.24263 868 ft 148 kts 54°
2026-04-30 09:25 43.51432 16.25384 679 ft 147 kts 53°
2026-04-30 09:25 43.52032 16.26494 461 ft 141 kts 53°
2026-04-30 09:26 43.52628 16.27532 276 ft 137 kts 53°
2026-04-30 09:26 43.53209 16.28575 137 ft 140 kts 53°
2026-04-30 09:26 43.53723 16.29486 89 ft 74 kts 52°
2026-04-30 09:26 43.53936 16.29871 87 ft 36 kts 52°
2026-04-30 09:27 43.54034 16.30083 83 ft 4 kts 111°
2026-04-30 09:27 43.54019 16.30088 84 ft 4 kts 180°
2026-04-30 09:27 43.53978 16.30081 79 ft 8 kts 191°
2026-04-30 09:27 43.53920 16.30059 80 ft 9 kts 207°
2026-04-30 09:28 43.53881 16.30012 84 ft 7 kts 226°
2026-04-30 09:28 43.53851 16.29964 84 ft 6 kts 233°
2026-04-30 09:28 43.53822 16.29910 86 ft 8 kts 232°
2026-04-30 09:28 43.53789 16.29857 84 ft 3 kts 215°
2026-04-30 09:29 43.53772 16.29837 85 ft 3 kts 224°
2026-04-30 09:29 43.53760 16.29827 88 ft 2 kts 198°
2026-04-30 09:29 43.53745 16.29828 85 ft 3 kts 165°
2026-04-30 09:29 43.53735 16.29844 87 ft 0 kts 121°